Location: Bruderhein
(53.8035°N, 112.9265°W)
Time: 10:33:14
(UTC+00:00)

deb Agena D - Pass Details

Date: 11 December 2023
Orbit: 760 x 888 km, 99.8° (Epoch: 04 March)

Event Time Altitude Azimuth Distance (km) Brightness Sun altitude
Rises 13:25:00 0° 145° (SE) 3,471 ? -18.4°
Reaches altitude 10° 13:27:26 10° 142° (SE) 2,525 ? -18.0°
Maximum altitude 13:32:55 57° 65° (ENE) 1,010 ? -17.2°
Drops below altitude 10° 13:38:16 10° 348° (NNW) 2,467 ? -16.5°
Enters shadow 13:39:49 - 346° (NNW) 3,063 ? -16.3°
